Time,TemperatureF,DewpointF,PressureIn,WindDirection,WindDirectionDegrees,WindSpeedMPH,WindSpeedGustMPH,Humidity,HourlyPrecipIn,Conditions,Clouds,dailyrainin,SoftwareType,DateUTC
2013-05-23 00:06:00,65.8,64.0,29.88,SW,215,5.0,7.0,93,0.00,,,0.00,weatherlink.com 1.10,2013-05-23 04:06:00,
2013-05-23 01:22:00,65.6,64.0,29.86,South,184,0.0,4.0,94,0.00,,,0.00,weatherlink.com 1.10,2013-05-23 05:22:00,
2013-05-23 01:37:00,65.3,64.0,29.86,SW,215,1.0,3.0,95,0.00,,,0.00,weatherlink.com 1.10,2013-05-23 05:37:00,
2013-05-23 01:52:00,65.1,64.0,29.86,SSW,195,3.0,5.0,95,0.00,,,0.00,weatherlink.com 1.10,2013-05-23 05:52:00,
2013-05-23 02:07:00,65.0,64.0,29.86,SSW,195,1.0,4.0,95,0.00,,,0.00,weatherlink.com 1.10,2013-05-23 06:07:00,
2013-05-23 02:22:00,64.9,64.0,29.86,SSW,195,2.0,4.0,95,0.00,,,0.00,weatherlink.com 1.10,2013-05-23 06:22:00,
2013-05-23 02:37:00,64.9,64.0,29.86,South,175,2.0,4.0,95,0.00,,,0.00,weatherlink.com 1.10,2013-05-23 06:37:00,
2013-05-23 02:52:00,64.9,64.0,29.86,SSE,154,2.0,4.0,96,0.00,,,0.00,weatherlink.com 1.10,2013-05-23 06:52:00,
2013-05-23 03:07:00,65.1,64.0,29.87,South,180,3.0,7.0,96,0.00,,,0.00,weatherlink.com 1.10,2013-05-23 07:07:00,
2013-05-23 03:22:00,65.2,64.0,29.87,South,190,3.0,7.0,96,0.00,,,0.00,weatherlink.com 1.10,2013-05-23 07:22:00,
2013-05-23 03:37:00,65.3,64.0,29.86,SSW,194,5.0,7.0,96,0.00,,,0.00,weatherlink.com 1.10,2013-05-23 07:37:00,
2013-05-23 03:52:00,65.2,64.0,29.87,SSW,200,2.0,5.0,96,0.00,,,0.00,weatherlink.com 1.10,2013-05-23 07:52:00,
2013-05-23 04:07:00,65.1,64.0,29.86,SSW,194,2.0,5.0,96,0.00,,,0.00,weatherlink.com 1.10,2013-05-23 08:07:00,
2013-05-23 04:22:00,65.2,64.0,29.86,South,189,4.0,7.0,96,0.00,,,0.00,weatherlink.com 1.10,2013-05-23 08:22:00,
2013-05-23 04:37:00,65.2,64.0,29.86,SSW,195,4.0,5.0,96,0.00,,,0.00,weatherlink.com 1.10,2013-05-23 08:37:00,
2013-05-23 04:52:00,65.2,64.0,29.85,South,190,6.0,7.0,96,0.00,,,0.00,weatherlink.com 1.10,2013-05-23 08:52:00,
2013-05-23 05:07:00,65.2,64.0,29.86,SSW,211,5.0,7.0,96,0.00,,,0.00,weatherlink.com 1.10,2013-05-23 09:07:00,
2013-05-23 05:22:00,65.3,64.0,29.85,SSW,210,4.0,7.0,96,0.00,,,0.00,weatherlink.com 1.10,2013-05-23 09:22:00,
2013-05-23 05:37:00,65.2,64.0,29.85,SSW,207,2.0,6.0,96,0.00,,,0.00,weatherlink.com 1.10,2013-05-23 09:37:00,
2013-05-23 05:52:00,65.0,64.0,29.85,South,175,1.0,6.0,96,0.00,,,0.00,weatherlink.com 1.10,2013-05-23 09:52:00,
2013-05-23 06:07:00,64.9,64.0,29.85,SSW,213,3.0,4.0,96,0.00,,,0.00,weatherlink.com 1.10,2013-05-23 10:07:00,
2013-05-23 06:22:00,64.9,64.0,29.85,SSW,198,3.0,6.0,96,0.00,,,0.00,weatherlink.com 1.10,2013-05-23 10:22:00,
2013-05-23 06:37:00,64.9,64.0,29.85,SSW,198,2.0,4.0,96,0.00,,,0.00,weatherlink.com 1.10,2013-05-23 10:37:00,
2013-05-23 06:52:00,65.0,64.0,29.86,SSW,192,2.0,4.0,96,0.00,,,0.00,weatherlink.com 1.10,2013-05-23 10:52:00,
2013-05-23 07:07:00,65.1,64.0,29.86,SSW,192,4.0,8.0,96,0.00,,,0.00,weatherlink.com 1.10,2013-05-23 11:07:00,
2013-05-23 07:22:00,65.4,64.0,29.86,SSW,202,2.0,5.0,96,0.00,,,0.00,weatherlink.com 1.10,2013-05-23 11:22:00,
2013-05-23 07:37:00,65.7,65.0,29.86,SSW,205,4.0,7.0,96,0.00,,,0.00,weatherlink.com 1.10,2013-05-23 11:37:00,
2013-05-23 07:52:00,66.0,65.0,29.86,WSW,237,5.0,7.0,95,0.00,,,0.00,weatherlink.com 1.10,2013-05-23 11:52:00,
2013-05-23 08:07:00,66.2,65.0,29.86,SSW,198,3.0,7.0,95,0.00,,,0.00,weatherlink.com 1.10,2013-05-23 12:07:00,
2013-05-23 08:22:00,66.9,65.0,29.86,SSW,192,2.0,6.0,94,0.00,,,0.00,weatherlink.com 1.10,2013-05-23 12:22:00,
2013-05-23 08:37:00,67.6,66.0,29.86,South,179,3.0,6.0,93,0.00,,,0.00,weatherlink.com 1.10,2013-05-23 12:37:00,
2013-05-23 08:52:00,67.7,66.0,29.86,SSW,201,5.0,7.0,93,0.00,,,0.00,weatherlink.com 1.10,2013-05-23 12:52:00,
2013-05-23 09:07:00,67.9,66.0,29.86,SSW,196,5.0,7.0,93,0.00,,,0.00,weatherlink.com 1.10,2013-05-23 13:07:00,
2013-05-23 09:23:00,68.4,66.0,29.86,South,189,4.0,9.0,92,0.00,,,0.00,weatherlink.com 1.10,2013-05-23 13:23:00,
2013-05-23 09:38:00,68.8,66.0,29.86,SSE,162,3.0,6.0,92,0.00,,,0.00,weatherlink.com 1.10,2013-05-23 13:38:00,
2013-05-23 09:53:00,69.2,66.0,29.87,SW,215,6.0,9.0,90,0.00,,,0.00,weatherlink.com 1.10,2013-05-23 13:53:00,
2013-05-23 10:08:00,69.4,66.0,29.87,South,174,0.0,7.0,90,0.00,,,0.00,weatherlink.com 1.10,2013-05-23 14:08:00,
2013-05-23 10:23:00,69.4,66.0,29.87,SW,229,5.0,8.0,89,0.00,,,0.00,weatherlink.com 1.10,2013-05-23 14:23:00,
2013-05-23 10:38:00,69.5,66.0,29.87,South,187,1.0,8.0,89,0.00,,,0.00,weatherlink.com 1.10,2013-05-23 14:38:00,
2013-05-23 10:53:00,70.1,67.0,29.87,SSW,204,1.0,8.0,89,0.00,,,0.00,weatherlink.com 1.10,2013-05-23 14:53:00,
2013-05-23 11:08:00,71.2,67.0,29.87,South,175,6.0,14.0,85,0.00,,,0.00,weatherlink.com 1.10,2013-05-23 15:08:00,
2013-05-23 11:23:00,71.5,67.0,29.87,SSE,163,3.0,7.0,84,0.00,,,0.00,weatherlink.com 1.10,2013-05-23 15:23:00,
2013-05-23 11:38:00,71.6,67.0,29.87,SSW,200,3.0,8.0,84,0.00,,,0.00,weatherlink.com 1.10,2013-05-23 15:38:00,
2013-05-23 11:53:00,71.8,67.0,29.87,South,184,5.0,7.0,84,0.00,,,0.00,weatherlink.com 1.10,2013-05-23 15:53:00,
2013-05-23 12:08:00,73.3,68.0,29.87,SSW,199,6.0,10.0,82,0.00,,,0.00,weatherlink.com 1.10,2013-05-23 16:08:00,
2013-05-23 12:23:00,74.9,68.0,29.86,SE,127,5.0,9.0,78,0.00,,,0.00,weatherlink.com 1.10,2013-05-23 16:23:00,
2013-05-23 12:38:00,75.7,70.0,29.85,ESE,123,9.0,9.0,81,0.00,,,0.00,weatherlink.com 1.10,2013-05-23 16:38:00,
2013-05-23 12:53:00,75.6,69.0,29.84,SE,127,4.0,11.0,79,0.00,,,0.00,weatherlink.com 1.10,2013-05-23 16:53:00,
2013-05-23 13:08:00,76.2,68.0,29.84,SE,146,6.0,10.0,76,0.00,,,0.00,weatherlink.com 1.10,2013-05-23 17:08:00,
2013-05-23 13:23:00,76.8,68.0,29.84,South,175,8.0,11.0,73,0.00,,,0.00,weatherlink.com 1.10,2013-05-23 17:23:00,
2013-05-23 13:38:00,76.9,68.0,29.83,SSE,163,2.0,8.0,73,0.00,,,0.00,weatherlink.com 1.10,2013-05-23 17:38:00,
2013-05-23 13:53:00,77.6,70.0,29.82,SE,128,7.0,11.0,77,0.00,,,0.00,weatherlink.com 1.10,2013-05-23 17:53:00,
2013-05-23 14:08:00,78.8,69.0,29.81,SE,140,5.0,10.0,71,0.00,,,0.00,weatherlink.com 1.10,2013-05-23 18:08:00,
2013-05-23 14:23:00,77.1,67.0,29.80,SSE,165,3.0,10.0,72,0.00,,,0.00,weatherlink.com 1.10,2013-05-23 18:23:00,
2013-05-23 14:38:00,76.4,68.0,29.80,SSE,156,6.0,10.0,75,0.00,,,0.00,weatherlink.com 1.10,2013-05-23 18:38:00,
2013-05-23 14:53:00,75.2,69.0,29.79,SSE,159,4.0,8.0,81,0.00,,,0.00,weatherlink.com 1.10,2013-05-23 18:53:00,
2013-05-23 15:08:00,75.6,69.0,29.79,South,180,8.0,9.0,79,0.00,,,0.00,weatherlink.com 1.10,2013-05-23 19:08:00,
2013-05-23 15:23:00,74.0,68.0,29.79,WSW,252,9.0,13.0,82,0.00,,,0.00,weatherlink.com 1.10,2013-05-23 19:23:00,
2013-05-23 15:38:00,71.7,67.0,29.79,WSW,243,6.0,10.0,86,0.00,,,0.00,weatherlink.com 1.10,2013-05-23 19:38:00,
2013-05-23 15:53:00,71.0,67.0,29.78,SW,233,7.0,10.0,88,0.01,,,0.01,weatherlink.com 1.10,2013-05-23 19:53:00,
2013-05-23 16:08:00,70.3,67.0,29.77,WSW,246,4.0,8.0,89,0.01,,,0.01,weatherlink.com 1.10,2013-05-23 20:08:00,
2013-05-23 16:23:00,71.1,68.0,29.77,SSW,197,7.0,8.0,90,0.01,,,0.01,weatherlink.com 1.10,2013-05-23 20:23:00,
2013-05-23 16:39:00,70.8,68.0,29.77,SSW,200,6.0,7.0,89,0.01,,,0.01,weatherlink.com 1.10,2013-05-23 20:39:00,
2013-05-23 16:54:00,71.5,69.0,29.77,SSW,209,6.0,8.0,90,0.00,,,0.01,weatherlink.com 1.10,2013-05-23 20:54:00,
2013-05-23 17:09:00,72.9,69.0,29.76,South,187,7.0,9.0,88,0.00,,,0.01,weatherlink.com 1.10,2013-05-23 21:09:00,
2013-05-23 17:24:00,73.2,69.0,29.77,South,178,8.0,10.0,87,0.00,,,0.01,weatherlink.com 1.10,2013-05-23 21:24:00,
2013-05-23 17:39:00,72.8,68.0,29.76,SW,225,4.0,9.0,85,0.00,,,0.01,weatherlink.com 1.10,2013-05-23 21:39:00,
2013-05-23 17:54:00,73.2,68.0,29.75,South,173,4.0,7.0,83,0.01,,,0.02,weatherlink.com 1.10,2013-05-23 21:54:00,
2013-05-23 18:09:00,72.5,67.0,29.75,SSW,202,7.0,8.0,83,0.01,,,0.02,weatherlink.com 1.10,2013-05-23 22:09:00,
2013-05-23 18:24:00,72.3,67.0,29.74,South,188,6.0,7.0,84,0.01,,,0.02,weatherlink.com 1.10,2013-05-23 22:24:00,
2013-05-23 18:39:00,73.1,68.0,29.74,SW,231,4.0,8.0,83,0.01,,,0.02,weatherlink.com 1.10,2013-05-23 22:39:00,
2013-05-23 18:54:00,73.2,67.0,29.75,WSW,240,3.0,9.0,81,0.00,,,0.02,weatherlink.com 1.10,2013-05-23 22:54:00,
2013-05-23 19:09:00,73.1,66.0,29.74,SSW,206,7.0,8.0,79,0.00,,,0.02,weatherlink.com 1.10,2013-05-23 23:09:00,
2013-05-23 19:24:00,72.8,67.0,29.75,SSW,206,4.0,7.0,81,0.00,,,0.02,weatherlink.com 1.10,2013-05-23 23:24:00,
2013-05-23 19:39:00,72.6,67.0,29.74,SSW,207,2.0,6.0,81,0.00,,,0.02,weatherlink.com 1.10,2013-05-23 23:39:00,
2013-05-23 19:54:00,71.9,67.0,29.74,SSW,202,0.0,3.0,84,0.00,,,0.02,weatherlink.com 1.10,2013-05-23 23:54:00,
2013-05-23 20:09:00,71.3,67.0,29.74,SSW,202,2.0,3.0,85,0.00,,,0.02,weatherlink.com 1.10,2013-05-24 00:09:00,
2013-05-23 20:24:00,70.8,67.0,29.75,SSW,202,0.0,2.0,86,0.00,,,0.02,weatherlink.com 1.10,2013-05-24 00:24:00,
2013-05-23 20:39:00,69.9,67.0,29.75,SSW,202,0.0,1.0,89,0.00,,,0.02,weatherlink.com 1.10,2013-05-24 00:39:00,
2013-05-23 20:54:00,69.5,67.0,29.76,SSW,202,0.0,0.0,90,0.00,,,0.02,weatherlink.com 1.10,2013-05-24 00:54:00,
2013-05-23 21:09:00,69.7,67.0,29.76,SSW,204,0.0,1.0,90,0.00,,,0.02,weatherlink.com 1.10,2013-05-24 01:09:00,
2013-05-23 21:24:00,69.5,67.0,29.77,SSW,202,3.0,5.0,90,0.00,,,0.02,weatherlink.com 1.10,2013-05-24 01:24:00,
2013-05-23 21:39:00,69.0,61.0,29.80,West,273,16.0,25.0,76,0.00,,,0.02,weatherlink.com 1.10,2013-05-24 01:39:00,
2013-05-23 21:54:00,64.3,61.0,29.80,SW,236,7.0,11.0,88,0.12,,,0.14,weatherlink.com 1.10,2013-05-24 01:54:00,
2013-05-23 22:09:00,63.5,60.0,29.79,West,275,6.0,12.0,88,0.18,,,0.20,weatherlink.com 1.10,2013-05-24 02:09:00,
2013-05-23 22:24:00,64.4,61.0,29.79,South,176,1.0,13.0,89,0.20,,,0.22,weatherlink.com 1.10,2013-05-24 02:24:00,
2013-05-23 22:39:00,63.0,61.0,29.78,SSE,147,5.0,7.0,93,0.21,,,0.23,weatherlink.com 1.10,2013-05-24 02:39:00,
2013-05-23 22:54:00,62.7,61.0,29.79,WSW,238,3.0,9.0,94,0.09,,,0.23,weatherlink.com 1.10,2013-05-24 02:54:00,
2013-05-23 23:09:00,62.6,61.0,29.79,SSW,198,4.0,5.0,94,0.04,,,0.24,weatherlink.com 1.10,2013-05-24 03:09:00,
2013-05-23 23:24:00,62.6,61.0,29.79,SSE,163,0.0,3.0,94,0.02,,,0.24,weatherlink.com 1.10,2013-05-24 03:24:00,
2013-05-23 23:39:00,62.3,61.0,29.78,SSE,163,0.0,2.0,95,0.01,,,0.24,weatherlink.com 1.10,2013-05-24 03:39:00,
2013-05-23 23:54:00,62.1,61.0,29.78,SSE,163,0.0,1.0,95,0.01,,,0.24,weatherlink.com 1.10,2013-05-24 03:54:00,